EW1736 Weather Reports


Display with metric or nautical units.
time (UTC)temp
F
wind
direction
speed
MPH
gust
MPH
rain 1hr
in
rain 24hr
in
rain mn
in
humidity
%
barometer
mb
20260901083442 55 132 3.0 13.0 0.00 0.00 0.00 64 1017.4
20260901081938 55 251 4.0 12.0 0.00 0.00 0.00 63 1017.4
20260901080434 55 231 2.0 14.0 0.00 0.00 0.00 61 1017.4
20260901074935 55 313 4.0 13.0 0.00 0.00 0.00 60 1017.2
20260901073431 55 5 9.0 13.0 0.00 0.00 0.00 62 1016.9
20260901071932 55 14 6.0 10.0 0.00 0.00 0.00 60 1016.9
20260901071825 55 284 4.0 18.0 0.00 0.00 0.00 59 1016.7
20260901064917 55 279 11.0 18.0 0.00 0.00 0.00 58 1016.5
20260901064108 55 279 10.0 19.0 0.00 0.00 0.00 62 1016.4
20260901061913 55 246 13.0 21.0 0.00 0.00 0.00 62 1016.1
20260901060409 55 252 13.0 20.0 0.00 0.00 0.00 62 1016.0
20260901054910 56 254 17.0 26.0 0.00 0.00 0.00 60 1015.6
20260901054103 56 243 13.0 27.0 0.00 0.00 0.00 63 1015.7
20260901051906 56 265 16.0 23.0 0.00 0.00 0.00 62 1015.3
20260901050401 56 243 22.0 36.0 0.00 0.00 0.00 61 1014.8
20260901044857 57 236 19.0 29.0 0.00 0.00 0.00 59 1014.7
20260901043358 58 246 19.0 34.0 0.00 0.01 0.00 57 1014.3
20260901041853 59 234 20.0 30.0 0.00 0.01 0.00 58 1014.1
20260901041044 59 227 17.0 35.0 0.00 0.01 0.00 54 1014.0
20260901034849 59 223 21.0 37.0 0.00 0.01 0.00 57 1013.7
20260901033346 59 233 29.0 42.0 0.00 0.01 0.00 53 1013.2
20260901031846 60 248 23.0 44.0 0.00 0.01 0.00 56 1013.3
20260901030341 60 250 27.0 34.0 0.00 0.01 0.00 53 1013.3
20260901024842 60 223 22.0 39.0 0.00 0.01 0.00 54 1013.4
20260901023337 60 257 26.0 40.0 0.00 0.01 0.00 54 1013.3
20260901021840 60 242 32.0 41.0 0.00 0.01 0.00 51 1013.2
20260901020334 61 223 21.0 29.0 0.00 0.02 0.00 55 1013.4
20260901014834 60 218 19.0 28.0 0.00 0.02 0.00 51 1013.5
20260901013329 60 246 22.0 36.0 0.00 0.02 0.00 52 1013.6
20260901013213 60 228 22.0 33.0 0.00 0.05 0.00 53 1013.9
20260901011026 60 232 17.0 35.0 0.00 0.05 0.00 56 1014.3
20260901004823 60 244 25.0 33.0 0.00 0.05 0.00 57 1014.4
20260901003322 60 233 20.0 26.0 0.00 0.06 0.00 56 1014.7
20260901001819 60 240 17.0 31.0 0.00 0.06 0.00 58 1014.7
20260901000318 60 207 17.0 33.0 0.00 0.06 0.00 54 1014.6
20260831234808 60 246 23.0 34.0 0.00 0.06 0.00 55 1014.6
20260831233309 60 240 18.0 28.0 0.00 0.06 0.00 56 1014.7
20260831232504 60 209 15.0 26.0 0.00 0.06 0.00 53 1014.5
20260831230304 60 242 22.0 30.0 0.00 0.06 0.00 53 1014.3
20260831224800 60 225 15.0 27.0 0.00 0.06 0.00 54 1014.6
20260831223256 59 205 17.0 26.0 0.00 0.06 0.00 53 1014.6
20260831221756 59 220 14.0 27.0 0.00 0.06 0.00 54 1014.5
20260831220252 59 236 14.0 26.0 0.00 0.06 0.00 54 1014.2
20260831215438 59 198 11.0 24.0 0.00 0.06 0.00 52 1014.2
20260831213248 58 223 14.0 17.0 0.00 0.06 0.00 54 1014.0
20260831211744 58 232 9.0 15.0 0.00 0.06 0.00 56 1013.7
20260831210245 59 273 6.0 10.0 0.00 0.06 0.00 54 1013.5
20260831204740 58 239 4.0 10.0 0.00 0.06 0.00 54 1013.3
20260831203235 58 211 6.0 11.0 0.00 0.06 0.00 54 1013.2
20260831202431 57 98 4.0 14.0 0.00 0.06 0.00 55 1013.1
20260831200232 56 167 3.0 9.0 0.00 0.06 0.00 58 1012.9
20260831195427 56 156 3.0 14.0 0.00 0.06 0.00 59 1012.7
20260831193928 56 74 5.0 15.0 0.00 0.06 0.00 59 1012.6
20260831191719 56 184 5.0 13.0 0.00 0.06 0.00 60 1012.5
20260831190221 55 227 5.0 17.0 0.00 0.06 0.00 61 1012.2
20260831184715 55 140 2.0 12.0 0.00 0.06 0.00 59 1012.0
20260831183205 55 236 4.0 20.0 0.00 0.06 0.00 59 1011.7
20260831181706 55 217 4.0 15.0 0.00 0.06 0.00 60 1011.3
20260831180202 56 186 5.0 14.0 0.00 0.06 0.00 62 1010.9
20260831174657 56 188 7.0 16.0 0.00 0.06 0.00 63 1010.7
20260831173158 56 301 7.0 19.0 0.00 0.06 0.00 63 1010.3
20260831171654 56 275 6.0 12.0 0.00 0.06 0.00 63 1010.0
20260831170154 56 207 5.0 12.0 0.00 0.06 0.00 63 1009.7
20260831164650 56 140 2.0 15.0 0.00 0.06 0.00 63 1009.7
20260831163141 56 284 9.0 18.0 0.00 0.06 0.00 64 1009.6
20260831161642 56 223 5.0 18.0 0.00 0.06 0.00 64 1009.4
20260831160137 55 104 2.0 25.0 0.00 0.06 0.00 65 1009.5
20260831154634 55 246 11.0 15.0 0.00 0.06 0.00 64 1009.6
20260831153133 56 167 15.0 33.0 0.00 0.06 0.00 62 1009.5
20260831152331 54 234 4.0 10.0 0.00 0.06 0.00 71 1009.8
20260831151632 54 234 4.0 10.0 0.00 0.06 0.00 71 1009.8
20260831150819 55 336 5.0 31.0 0.00 0.06 0.00 70 1009.4
20260831144625 56 234 9.0 20.0 0.00 0.06 0.00 68 1009.3
20260831143121 56 282 2.0 8.0 0.00 0.06 0.00 68 1009.2
20260831141622 56 87 2.0 15.0 0.00 0.06 0.00 68 1009.3
20260831140116 56 24 2.0 14.0 0.00 0.06 0.00 68 1009.1
20260831134617 55 279 5.0 14.0 0.00 0.06 0.00 70 1009.1
20260831133113 55 269 8.0 18.0 0.00 0.06 0.00 71 1008.9
20260831131609 55 252 13.0 24.0 0.00 0.06 0.00 72 1009.0
20260831130111 55 250 12.0 20.0 0.00 0.06 0.00 72 1009.0
20260831125300 56 223 15.0 24.0 0.00 0.06 0.00 71 1008.9
20260831123101 56 277 15.0 19.0 0.00 0.06 0.00 71 1009.0
20260831121556 56 244 13.0 22.0 0.00 0.06 0.00 69 1008.9
20260831120052 56 295 5.0 20.0 0.00 0.06 0.00 68 1008.9
20260831114554 56 273 4.0 11.0 0.00 0.06 0.06 67 1009.1
20260831113047 56 194 3.0 14.0 0.00 0.06 0.06 66 1009.0
20260831111548 56 301 7.0 16.0 0.00 0.06 0.06 67 1008.8
20260831110043 57 321 4.0 12.0 0.00 0.06 0.06 66 1008.8
20260831104540 57 282 4.0 15.0 0.00 0.06 0.06 66 1009.0
20260831103040 57 96 1.0 11.0 0.00 0.06 0.06 68 1008.8
20260831101535 56 24 2.0 15.0 0.00 0.06 0.06 69 1008.6
20260831100038 56 250 14.0 19.0 0.00 0.06 0.06 70 1008.5
20260831094532 56 59 4.0 11.0 0.00 0.06 0.06 68 1008.3
20260831093028 56 197 4.0 21.0 0.00 0.06 0.06 71 1008.3
20260831091523 56 232 7.0 17.0 0.00 0.06 0.06 70 1008.1
20260831090019 56 222 9.0 16.0 0.00 0.06 0.06 72 1008.1
20260831085218 56 281 5.0 14.0 0.00 0.06 0.06 72 1007.9